TimeCDT,TemperatureF,Dew PointF,Humidity,Sea Level PressureIn,VisibilityMPH,Wind Direction,Wind SpeedMPH,Gust SpeedMPH,PrecipitationIn,Events,Conditions,WindDirDegrees,DateUTC
12:53 AM,41.0,26.6,57,29.79,10.0,WNW,16.1,-,N/A,,Clear,300,2011-10-17 05:53:00
1:53 AM,39.0,28.0,65,29.83,10.0,WNW,16.1,-,N/A,,Clear,290,2011-10-17 06:53:00
2:53 AM,37.9,28.9,70,29.82,10.0,West,12.7,-,N/A,,Clear,280,2011-10-17 07:53:00
3:53 AM,37.9,28.9,70,29.81,10.0,WNW,13.8,-,N/A,,Clear,290,2011-10-17 08:53:00
4:53 AM,37.4,28.4,70,29.78,10.0,WNW,11.5,-,N/A,,Clear,300,2011-10-17 09:53:00
5:53 AM,37.0,28.9,73,29.81,10.0,WNW,12.7,-,N/A,,Clear,290,2011-10-17 10:53:00
6:53 AM,36.0,28.0,73,29.82,10.0,WNW,13.8,-,N/A,,Clear,290,2011-10-17 11:53:00
7:53 AM,34.0,28.0,79,29.83,10.0,WNW,12.7,-,N/A,,Clear,290,2011-10-17 12:53:00
8:53 AM,37.9,28.9,70,29.83,10.0,WNW,15.0,23.0,N/A,,Clear,290,2011-10-17 13:53:00
9:53 AM,42.1,28.9,60,29.84,10.0,WNW,17.3,23.0,N/A,,Clear,300,2011-10-17 14:53:00
10:53 AM,45.0,28.0,52,29.84,10.0,WNW,21.9,26.5,N/A,,Clear,290,2011-10-17 15:53:00
11:53 AM,46.9,25.0,42,29.84,10.0,WNW,24.2,31.1,N/A,,Clear,290,2011-10-17 16:53:00
12:53 PM,50.0,24.1,36,29.85,10.0,WNW,25.3,28.8,N/A,,Clear,290,2011-10-17 17:53:00
1:53 PM,51.1,21.0,31,29.83,10.0,WNW,26.5,33.4,N/A,,Clear,300,2011-10-17 18:53:00
2:53 PM,52.0,21.0,30,29.83,10.0,NW,19.6,38.0,N/A,,Clear,310,2011-10-17 19:53:00
3:53 PM,52.0,21.9,31,29.84,10.0,WNW,18.4,32.2,N/A,,Clear,300,2011-10-17 20:53:00
4:53 PM,51.1,21.0,31,29.85,10.0,NW,18.4,26.5,N/A,,Clear,320,2011-10-17 21:53:00
5:53 PM,48.9,23.0,36,29.87,10.0,NW,19.6,24.2,N/A,,Clear,320,2011-10-17 22:53:00
6:53 PM,44.6,24.8,46,29.85,10.0,NNW,9.2,-,N/A,,Clear,330,2011-10-17 23:53:00
7:53 PM,43.0,27.0,53,29.91,10.0,NNW,8.1,-,N/A,,Clear,330,2011-10-18 00:53:00
8:53 PM,41.0,30.0,65,29.92,10.0,NNW,19.6,32.2,N/A,,Clear,330,2011-10-18 01:53:00
9:50 PM,39.2,30.2,70,29.89,10.0,NNW,11.5,23.0,N/A,,Mostly Cloudy,330,2011-10-18 02:50:00
9:53 PM,39.0,30.9,73,29.94,10.0,NNW,12.7,23.0,N/A,,Mostly Cloudy,330,2011-10-18 02:53:00
10:53 PM,39.0,30.9,73,29.94,10.0,NNW,11.5,-,N/A,,Overcast,340,2011-10-18 03:53:00
11:11 PM,39.2,30.2,70,29.90,10.0,NW,9.2,-,N/A,,Overcast,320,2011-10-18 04:11:00
11:53 PM,39.0,30.9,73,29.94,10.0,NNW,12.7,19.6,N/A,,Overcast,330,2011-10-18 04:53:00